ORBCOMM FM118 [+] (41183 NORAD) Tracking and Keplerian Element Data

This shows tracking and keplerian element data for the satellite.

Feedback or suggestion? Click here.




ElementValue
Catalog41183
NameORBCOMM FM118 [+]
Epoch Orbit13605
Epoch Day195.71744165
Epoch Year2018
RAAN301.6166
Inclination47.0044
Eccentricity0.0001404
Argument of Perigee178.0046
Mean Anonmoly182.0844
Mean Motion14.5471967
Decay Rate-5.6E-07
L11 41183U 15081E 18195.71744165 -.00000056 00000-0 25373-4 0 9997
L22 41183 47.0044 301.6166 0001404 178.0046 182.0844 14.54719670136052

Live tracking and technical data element details for ORBCOMM FM118 [+] (NORAD 41183). ORBCOMM FM118 [+] can be tracked NOW for your location showing map with azimuth and elevation plus other details from your city location.

Track the satellite on the map from your city or location and see movement details for azimuth, elevation, latitude, longitude, range, height, and movement on the map or in text.







IsCatalogInMostPopularTable: catalog: 41183, numindb: 65
Update: records affected: 1



GetName: 41183 ORBCOMM FM118 [+]

Hit Count: updated at: Sun, 15 Jul 2018 23:12:48 GMT